Weather History for Abilene Dyess, TX

Change the Weather History Date:

Friday, January 17, 2014

  Actual Average Record
Temperature  
Mean Temperature 42 °F -  
Max Temperature 55 °F 57 °F 78 °F (2000)
Min Temperature 29 °F 35 °F 19 °F (2003)
Degree Days  
Heating Degree Days 23    
Moisture  
Dew Point 16 °F    
Average Humidity 38    
Maximum Humidity 59    
Minimum Humidity 19    
Precipitation  
Precipitation 0.00 in - - ()
Sea Level Pressure  
Sea Level Pressure 30.29 in    
Wind  
Wind Speed 3 mph (West)    
Max Wind Speed 13 mph    
Max Gust Speed -    
Visibility 10 miles    
Events      
Averages and records for this station are not official NWS values.
T = Trace of Precipitation, MM = Missing Value Source: NWS Daily Summary

Daily Weather History Graph

Daily Weather History Graph

Search for Another Location

Airport:

Trip Planner

Search our weather history database for the weather conditions in past years. The results will help you decide how hot, cold, wet, or windy it might be!

Date:

Astronomy

Jan. 17, 2014 Rise Set
Actual Time 7:40 AM CST 5:58 PM CST
Civil Twilight 7:14 AM CST 6:25 PM CST
Nautical Twilight 6:44 AM CST 6:55 PM CST
Astronomical Twilight 6:14 AM CST 7:24 PM CST
Moon 7:38 PM CST (1/17) 8:16 AM CST (1/17)
Length of Visible Light 11h 11m
Length of Day
10h 18m
Full, 98% of the Moon is Illuminated
Jan 17
Full
Jan 23
Last Quarter
Jan 30
New
Feb 6
First Quarter
Feb 14
Full

Hourly Weather History & Observations

Time (CST) Temp. Windchill Dew Point Humidity Pressure Visibility Wind Dir Wind Speed Gust Speed Precip Events Conditions
12:58 AM 33.1 °F - 18.9 °F 56% 30.26 in 10.0 mi Calm Calm - N/A   Clear
1:58 AM 35.4 °F - 20.1 °F 54% 30.26 in 10.0 mi North 1.2 mph - N/A   Clear
2:58 AM 35.8 °F - 18.7 °F 50% 30.27 in 10.0 mi NW 2.3 mph - N/A   Clear
3:58 AM 33.6 °F - 18.0 °F 53% 30.28 in 10.0 mi NW 2.3 mph - N/A   Clear
4:58 AM 32.5 °F 28.1 °F 16.5 °F 52% 30.29 in 10.0 mi West 4.6 mph - N/A   Clear
5:58 AM 33.6 °F 29.4 °F 16.5 °F 50% 30.32 in 10.0 mi WSW 4.6 mph - N/A   Clear
6:58 AM 32.5 °F - 16.3 °F 51% 30.34 in 10.0 mi Calm Calm - N/A   Clear
7:58 AM 29.7 °F 23.7 °F 16.7 °F 59% 30.37 in 10.0 mi NW 5.8 mph - N/A   Clear
8:58 AM 37.9 °F 34.4 °F 17.4 °F 43% 30.39 in 10.0 mi NNW 4.6 mph - N/A   Clear
9:58 AM 43.3 °F 40.7 °F 14.5 °F 31% 30.41 in 10.0 mi Variable 4.6 mph - N/A   Clear
10:58 AM 45.9 °F 44.6 °F 12.0 °F 25% 30.41 in 10.0 mi NNE 3.5 mph - N/A   Clear
11:58 AM 48.9 °F - 10.6 °F 21% 30.38 in 10.0 mi Variable 4.6 mph - N/A   Clear
12:58 PM 51.1 °F - 11.5 °F 20% 30.32 in 10.0 mi NW 3.5 mph - N/A   Clear
1:58 PM 53.2 °F - 12.2 °F 20% 30.27 in 10.0 mi NNE 4.6 mph - N/A   Clear
2:58 PM 54.1 °F - 12.9 °F 19% 30.25 in 10.0 mi East 3.5 mph - N/A   Clear
3:58 PM 55.4 °F - 14.0 °F 20% 30.23 in 10.0 mi Variable 1.2 mph - N/A   Clear
4:58 PM 55.2 °F - 14.5 °F 20% 30.23 in 10.0 mi ESE 4.6 mph - N/A   Clear
5:58 PM 48.9 °F - 15.4 °F 26% 30.24 in 10.0 mi SSW 5.8 mph - N/A   Clear
6:58 PM 45.3 °F 42.3 °F 15.3 °F 30% 30.24 in 10.0 mi SW 5.8 mph - N/A   Clear
7:58 PM 43.5 °F 38.9 °F 15.6 °F 33% 30.24 in 10.0 mi SW 8.1 mph - N/A   Clear
8:58 PM 33.6 °F 26.8 °F 16.9 °F 50% 30.24 in 10.0 mi SSW 8.1 mph - N/A   Clear
9:58 PM 35.1 °F 28.6 °F 16.9 °F 48% 30.22 in 10.0 mi South 8.1 mph - N/A   Clear
10:58 PM 34.9 °F 32.0 °F 16.5 °F 47% 30.21 in 10.0 mi South 3.5 mph - N/A   Clear
11:58 PM 39.0 °F 31.4 °F 15.3 °F 38% 30.17 in 10.0 mi South 12.7 mph - N/A   Clear